FENGYUN 1C DEB, 38157

Orbit data source: Space-Track

FENGYUN 1C DEB, 38157 is space debris in SSO originally from a launch on Mon, 10 May 1999 UTC launched from the Taiyaun Space Center, China (TSC). Fengyun 1C debris stems from the Chinese weather satellite Fengyun-1C, which was intentionally destroyed by a Chinese anti-satellite missile in 2007. This event dramatically increased the amount of space debris, with thousands of trackable fragments posing hazards to satellites and human spaceflight. The Fengyun 1C debris cloud has become a focal point in discussions about space sustainability and the need for international regulations to prevent the creation of new debris.

Loading next visibility...
Identifier
38157, 1999-025ERE
Orbit
SSO
Country
Flag of CNCN / PRC
Related business
Manufacturer
Unknown
Mission
Spacecraft
Bus & Motor
Unknown
Mass
Unknown
Launch date (UTC)
1999-05-10 (27 years ago)
Launch vehicle
Unknown
Launch site
Taiyaun Space Center, China (TSC)
Object type
Payload
Rocket body
Debris
Shape & HBR
Unknown shape, 0.1 m
Radar Cross Section
Small (<0.1 m²)

Expand to show TLE details & history
Last TLE update: 8 hours ago

TLE from 8 hours ago
0 FENGYUN 1C DEB
1 38157U 99025ERE 26208.27274758  .00001093  00000-0  35345-3 0  9995
2 38157  99.6544 142.0529 0269447 197.4142 161.7655 14.22922609794688
Epoch: 2026-07-27T06:32Z
TLE epoch observation values (Epoch: 2026-07-27T06:32:45.390Z)
Latitude
-0.00002°
Longitude
98.90508°
Altitude
1,002.999 km
Speed
7.255 km/s
True Right ascension
09h 28m 12s
True Declination
0° 00' 00"
Sunlit
Object was in daylight at epoch
Visualization orbit readout
Latitude
Unknown
Longitude
Unknown
Altitude
Unknown
Speed
Unknown
Apparent Right ascension
Unknown
Apparent Declination
Unknown
Sunlit
N/A
Visualization observer readout
Local Sidereal Time
03:41:52
Azimuth
Unknown
Elevation
Unknown
Doppler factor
Unknown
Orbital elements
Apogee altitude
1,006.44 km
Perigee altitude
618.93 km
Semi-major axis
7,190.822 km
Eccentricity
0.02694
Inclination
99.6544°
RAAN
142.0529°
Arg. of periapsis
197.4142°
True anomaly
162.70162°
Mean anomaly
161.7655°
Eccentric anomaly
162.2365°
Mean motion
3.55939 °/min
Orbital period
101.14 mins
BSTAR
0.00035345
Loading maneuver chart data...
Computing Atmospheric mass density...
Loading historical data...
Loading historical data...
Loading historical data...
Loading historical data...
Loading historical data...
Loading historical data...
Loading historical data...

Documentation

Showing up to 5 results
|